This is the latest recevied weather packets stored in our database for station/object OE3BCB-14. If no packets are shown the sender has not sent any weather packets the latest 10 day(s).
| Time | Temp. | Humidity | Pressure | Rain* | Wind** | Luminosity | Snow |
|---|---|---|---|---|---|---|---|
| 1777471957 | 25.56° C | 18% | 1024.6 hPa | - | - | 151 W/m² | - |
| 1777471654 | 25° C | 18% | 1024.7 hPa | - | - | 167 W/m² | - |
| 1777471352 | 24.44° C | 18% | 1024.7 hPa | - | - | 184 W/m² | - |
| 1777471049 | 25° C | 19% | 1024.7 hPa | - | - | 188 W/m² | - |
| 1777470747 | 24.44° C | 19% | 1024.8 hPa | - | - | 187 W/m² | - |
| 1777470445 | 24.44° C | 19% | 1024.7 hPa | - | - | 152 W/m² | - |
| 1777470142 | 24.44° C | 18% | 1024.8 hPa | - | - | 99 W/m² | - |
| 1777469840 | 23.89° C | 19% | 1024.8 hPa | - | - | 93 W/m² | - |
| 1777469537 | 24.44° C | 18% | 1024.7 hPa | - | - | 124 W/m² | - |
| 1777469235 | 23.89° C | 19% | 1024.7 hPa | - | - | 131 W/m² | - |
| 1777468932 | 24.44° C | 19% | 1024.8 hPa | - | - | 74 W/m² | - |
| 1777468630 | 23.89° C | 19% | 1024.8 hPa | - | - | 91 W/m² | - |
| 1777468025 | 23.89° C | 19% | 1024.7 hPa | - | - | 186 W/m² | - |
| 1777467723 | 25.56° C | 19% | 1024.8 hPa | - | - | 177 W/m² | - |
| 1777467421 | 24.44° C | 19% | 1024.8 hPa | - | - | 153 W/m² | - |
| 1777467118 | 25° C | 20% | 1024.8 hPa | - | - | 145 W/m² | - |
| 1777466816 | 23.33° C | 20% | 1024.8 hPa | - | - | 172 W/m² | - |
| 1777466513 | 23.89° C | 20% | 1024.9 hPa | - | - | 161 W/m² | - |
| 1777465908 | 24.44° C | 21% | 1025 hPa | - | - | 150 W/m² | - |
| 1777465606 | 24.44° C | 20% | 1024.9 hPa | - | - | 125 W/m² | - |
| 1777465304 | 24.44° C | 21% | 1024.9 hPa | - | - | 103 W/m² | - |
| 1777465001 | 23.89° C | 21% | 1024.9 hPa | - | - | 84 W/m² | - |
| 1777464699 | 23.33° C | 22% | 1024.9 hPa | - | - | 75 W/m² | - |
| 1777464396 | 23.33° C | 22% | 1024.7 hPa | - | - | 66 W/m² | - |
| 1777464094 | 23.33° C | 21% | 1024.9 hPa | - | - | 61 W/m² | - |
* Rain since midnight (hover to see other rain measurements)
** Current wind speed in m/s (hover to see current wind gust speed)